sat.trackr.live / text

‹ back to catalog

IRIDIUM 168

NORAD 43924 · 2019-002C

PAYLOAD ACTIVE UNKNOWN

§ Identity

Operator
Country
US
Launch date
2019-01-11
Launch site
AFWTR
Launch vehicle
Mass (kg)
RCS (m²)

Purposes: comms

External: N2YO · Heavens-Above · Gunter

§ Orbital elements

Epoch: 2026-09-20T00:21:18.950688Z

Period
100.40 min
Inclination
86.3974°
Eccentricity
0.0002253
Mean motion
14.34217176 rev/d
Perigee alt
776.1 km
Apogee alt
779.3 km
Semi-major
7,155.8 km
B*
2.4293e-5
RAAN
314.0597°
Arg perigee
95.3022°
Mean anomaly
264.8430°
Rev number
40,256

§ Raw data

IRIDIUM 1681 43924U 19002C   26263.01480267  .00000088  00000+0  24293-4 0  99902 43924  86.3974 314.0597 0002253  95.3022 264.8430 14.34217176402563

JSON: /api/v1/satellites/43924 · /tle

For live sub-satellite position, see the globe view (requires WebGL).

§ Visibility from observer

Set your observer location to see the next 7 days of passes ≥ 10°. The values pass through the URL so the page stays shareable.

No JS? Fill the form by hand. The geolocation button needs JavaScript.